Regional Weather Roundup
Issued by NWS Albany, NY

Home | Current Version | Previous Version | Graphics & Text | Print | Product List | Glossary On
Versions: 1 2 3 4 5 6 7 8 9 10 11 12 13 14 15 16 17 18 19 20 21 22 23 24 25 26 27 28 29 30 31 32 33 34 35 36 37 38 39 40 41 42 43 44 45 46 47 48 49 50
457
ASUS41 KALY 201310
RWRALY

NEW YORK STATE HOURLY WEATHER ROUNDUP
NATIONAL WEATHER SERVICE ALBANY NY
800 AM EST MON FEB 20 2017

NOTE: "FAIR" INDICATES FEW OR NO CLOUDS BELOW 12,000 FEET WITH NO
SIGNIFICANT WEATHER AND/OR NO OBSTRUCTIONS TO VISIBILITY.

NYZ032-033-038>043-046>054-057>066-NYZ062>081-082-084-201400-
EAST


CITY           SKY/WX    TMP DP  RH WIND       PRES   REMARKS
ALBANY         PTSUNNY   35  26  69 NW12      30.20R WCI  27
GLENS FALLS    SUNNY     33  19  56 N10       30.20R WCI  25
POUGHKEEPSIE   SUNNY     31  28  89 CALM      30.15R
NEWBURGH       SUNNY     37  32  81 W9        30.14R WCI  31
MONTGOMERY     SUNNY     41  30  65 VRB6      30.13R
WHITE PLAINS   SUNNY     41  31  67 NW9       30.13R
ISLIP          MOSUNNY   43  33  68 NW10      30.13R
NEW YORK CITY  MOSUNNY   45  32  60 NW13      30.15R
CENTRAL PARK   SUNNY     44  31  60 VRB3      30.18R
$$

NYZ005>009-017-018-044>046-055-056-201400-
CENTRAL


CITY           SKY/WX    TMP DP  RH WIND       PRES   REMARKS
FULTON         SUNNY     30  20  66 N8        30.31R WCI  22
SYRACUSE       MOSUNNY   29  21  72 NW10      30.30R WCI  20
ROME           SUNNY     28  20  71 NW8       30.27R WCI  20
ELMIRA         CLOUDY    35  28  75 NE6       30.25R WCI  30
BINGHAMTON     PTSUNNY   29  25  85 N13       30.20R WCI  19
MONTICELLO     SUNNY     34  27  75 NW6       30.15R WCI  29
$$

NYZ026>034-041>043-087-201400-
NORTH


CITY           SKY/WX    TMP DP  RH WIND       PRES   REMARKS
WATERTOWN      SUNNY     27  22  81 NE3       30.30R
FORT DRUM      NOT AVBL
OGDENSBURG     FAIR      27  20  75 NW8       30.31R WCI  19
MASSENA        SUNNY     26  17  68 NW9       30.31R WCI  17
SARANAC LAKE   PTSUNNY   22  15  75 VRB3      30.16R
PLATTSBURGH    SUNNY     29  14  53 NW13G23   30.23R WCI  19
$$

NYZ001>004-010>016-019>021-085-201400-
WEST


CITY           SKY/WX    TMP DP  RH WIND       PRES   REMARKS
NIAGARA FALLS  CLEAR     35  28  75 NE8       30.30R WCI  29
BUFFALO        PTCLDY    32  29  88 NE6       30.30R WCI  26
DUNKIRK        CLEAR     28  25  88 CALM      30.31R
JAMESTOWN      CLEAR     34  27  75 N3        30.25R
WELLSVILLE     CLOUDY    32  29  88 VRB3      30.23R
ROCHESTER      PTCLDY    33  26  75 NE12      30.32R WCI  24
PENN YAN       CLOUDY    33  25  72 VRB6      30.28R WCI  28
$$

             KEY
       WCI = WIND CHILL INDEX
       VSB = VISIBILITY
       HX  = HEAT INDEX
$$




USA.gov is the U.S. government's official web portal to all federal, state and local government web resources and services.